{"data":{"norad_id":67686,"epoch":"2026-05-25T00:40:39.757152Z","epoch_age_seconds":68488,"freshness":"FRESH","line1":"1 67686U 98067YC  26145.02823793  .00066056  00000+0  76375-3 0  9998","line2":"2 67686  51.6280  49.4172 0009892  99.7190 260.4921 15.61190741 16687","mean_motion":15.61190741,"eccentricity":0.0009892,"inclination_deg":51.628,"raan_deg":49.4172,"arg_perigee_deg":99.719,"mean_anomaly_deg":260.4921,"bstar":0.00076375,"rev_number":1668,"period_min":92.237287999647,"perigee_km":377.52708238826,"apogee_km":390.90572235951,"semimajor_km":6762.3534023739,"source":"CELESTRAK","updated_at":"2026-05-25T13:38:08.450021Z"}}